| time (UTC) | temp C | wind direction | speed KPH | gust KPH | rain 1hr cm | rain 24hr cm | rain mn cm | humidity % | barometer mb |
| 20260502163059 | 17 | 325 | 27.4 | 38.6 | 0.00 | 0.00 | 0.00 | 42 | 1008.1 |
| 20260502161555 | 17 | 310 | 22.5 | 33.8 | 0.00 | 0.00 | 0.00 | 42 | 1008.0 |
| 20260502151607 | 15 | 280 | 17.7 | 29.0 | 0.00 | 0.00 | 0.00 | 42 | 1008.4 |
| 20260502123058 | 8 | 222 | 17.7 | 24.1 | 0.00 | 0.00 | 0.00 | 53 | 1009.5 |
| 20260502121558 | 8 | 206 | 19.3 | 27.4 | 0.00 | 0.00 | 0.00 | 53 | 1009.7 |
| 20260502114610 | 8 | 192 | 14.5 | 24.1 | 0.00 | 0.00 | 0.00 | 54 | 1009.7 |
| 20260502113100 | 8 | 197 | 19.3 | 25.7 | 0.00 | 0.00 | 0.00 | 53 | 1009.8 |
| 20260502111558 | 7 | 192 | 14.5 | 22.5 | 0.00 | 0.00 | 0.00 | 54 | 1010.0 |
| 20260502110056 | 7 | 196 | 16.1 | 27.4 | 0.00 | 0.00 | 0.00 | 54 | 1010.2 |
| 20260502104559 | 7 | 200 | 20.9 | 30.6 | 0.00 | 0.00 | 0.00 | 55 | 1010.2 |
| 20260502103056 | 7 | 201 | 17.7 | 25.7 | 0.00 | 0.00 | 0.00 | 57 | 1010.6 |
| 20260502101624 | 6 | 205 | 14.5 | 25.7 | 0.00 | 0.00 | 0.00 | 57 | 1010.9 |
| 20260502100104 | 6 | 197 | 14.5 | 22.5 | 0.00 | 0.00 | 0.00 | 56 | 1010.9 |
| 20260502090109 | 7 | 201 | 14.5 | 20.9 | 0.00 | 0.00 | 0.00 | 55 | 1011.8 |
| 20260502070123 | 5 | 223 | 9.7 | 14.5 | 0.00 | 0.00 | 0.00 | 60 | 1013.2 |
| 20260502064559 | 5 | 223 | 9.7 | 14.5 | 0.00 | 0.00 | 0.00 | 59 | 1013.1 |
| 20260502063059 | 5 | 223 | 11.3 | 16.1 | 0.00 | 0.00 | 0.00 | 58 | 1013.1 |
| 20260502061606 | 5 | 233 | 8.0 | 12.9 | 0.00 | 0.00 | 0.00 | 60 | 1013.2 |
| 20260502060100 | 5 | 233 | 11.3 | 16.1 | 0.00 | 0.00 | 0.00 | 60 | 1013.3 |
| 20260502054600 | 5 | 240 | 8.0 | 12.9 | 0.00 | 0.00 | 0.00 | 61 | 1013.6 |
| 20260502053056 | 5 | 243 | 11.3 | 14.5 | 0.00 | 0.00 | 0.00 | 63 | 1013.8 |
| 20260502051628 | 3 | 259 | 3.2 | 6.4 | 0.00 | 0.00 | 0.00 | 65 | 1013.7 |
| 20260502050100 | 5 | 259 | 3.2 | 11.3 | 0.00 | 0.00 | 0.00 | 61 | 1013.9 |
| 20260502044555 | 5 | 259 | 6.4 | 11.3 | 0.00 | 0.00 | 0.00 | 59 | 1013.9 |
| 20260502043107 | 6 | 260 | 4.8 | 11.3 | 0.00 | 0.00 | 0.00 | 56 | 1014.0 |
| 20260502041609 | 6 | 260 | 4.8 | 11.3 | 0.00 | 0.00 | 0.00 | 54 | 1014.2 |
| 20260502040105 | 7 | 260 | 9.7 | 12.9 | 0.00 | 0.00 | 0.00 | 53 | 1014.3 |
| 20260502034559 | 7 | 269 | 8.0 | 11.3 | 0.00 | 0.00 | 0.00 | 54 | 1014.3 |
| 20260502033100 | 6 | 283 | 8.0 | 11.3 | 0.00 | 0.00 | 0.00 | 56 | 1014.4 |
| 20260502031556 | 7 | 283 | 4.8 | 6.4 | 0.00 | 0.00 | 0.00 | 55 | 1014.3 |
| 20260502030106 | 8 | 283 | 4.8 | 11.3 | 0.00 | 0.00 | 0.00 | 50 | 1014.5 |
| 20260502024557 | 8 | 283 | 6.4 | 9.7 | 0.00 | 0.00 | 0.00 | 49 | 1014.4 |
| 20260502023123 | 10 | 283 | 4.8 | 6.4 | 0.00 | 0.00 | 0.00 | 44 | 1014.4 |
| 20260502021556 | 11 | 283 | 1.6 | 6.4 | 0.00 | 0.00 | 0.00 | 40 | 1014.4 |
| 20260502020112 | 12 | 283 | 4.8 | 9.7 | 0.00 | 0.00 | 0.00 | 39 | 1014.4 |
| 20260502014556 | 13 | 283 | 6.4 | 9.7 | 0.00 | 0.00 | 0.00 | 36 | 1014.3 |
| 20260502013114 | 16 | 283 | 4.8 | 11.3 | 0.00 | 0.00 | 0.00 | 33 | 1014.4 |
| 20260502011610 | 17 | 283 | 11.3 | 16.1 | 0.00 | 0.00 | 0.00 | 28 | 1014.5 |
| 20260502010101 | 18 | 289 | 9.7 | 19.3 | 0.00 | 0.00 | 0.00 | 27 | 1014.4 |
| 20260502004624 | 18 | 286 | 14.5 | 22.5 | 0.00 | 0.00 | 0.00 | 27 | 1014.6 |
| 20260502003102 | 18 | 280 | 14.5 | 20.9 | 0.00 | 0.00 | 0.00 | 25 | 1014.8 |
| 20260502001610 | 18 | 281 | 16.1 | 22.5 | 0.00 | 0.00 | 0.00 | 26 | 1014.6 |
| 20260501234607 | 18 | 302 | 11.3 | 25.7 | 0.00 | 0.00 | 0.00 | 26 | 1015.1 |
| 20260501233059 | 19 | 296 | 14.5 | 30.6 | 0.00 | 0.00 | 0.00 | 25 | 1015.4 |
| 20260501231557 | 18 | 323 | 17.7 | 30.6 | 0.00 | 0.00 | 0.00 | 25 | 1015.3 |
| 20260501230055 | 19 | 277 | 19.3 | 40.2 | 0.00 | 0.00 | 0.00 | 24 | 1015.6 |
| 20260501224557 | 19 | 325 | 19.3 | 29.0 | 0.00 | 0.00 | 0.00 | 26 | 1015.4 |
| 20260501223056 | 18 | 309 | 17.7 | 24.1 | 0.00 | 0.00 | 0.00 | 27 | 1015.6 |
| 20260501221558 | 18 | 304 | 9.7 | 20.9 | 0.00 | 0.00 | 0.00 | 27 | 1015.6 |
| 20260501220137 | 18 | 296 | 9.7 | 32.2 | 0.00 | 0.00 | 0.00 | 27 | 1015.9 |
| 20260501214558 | 17 | 333 | 11.3 | 25.7 | 0.00 | 0.00 | 0.00 | 27 | 1016.0 |
| 20260501213104 | 18 | 318 | 14.5 | 30.6 | 0.00 | 0.00 | 0.00 | 27 | 1016.1 |
| 20260501211556 | 18 | 307 | 20.9 | 30.6 | 0.00 | 0.00 | 0.00 | 27 | 1016.4 |
| 20260501210110 | 17 | 311 | 12.9 | 29.0 | 0.00 | 0.00 | 0.00 | 31 | 1016.4 |
| 20260501204600 | 17 | 275 | 19.3 | 35.4 | 0.00 | 0.00 | 0.00 | 28 | 1016.7 |
| 20260501203101 | 17 | 344 | 12.9 | 32.2 | 0.00 | 0.00 | 0.00 | 29 | 1016.8 |
| 20260501201605 | 17 | 304 | 19.3 | 30.6 | 0.00 | 0.00 | 0.00 | 31 | 1017.1 |
| 20260501200057 | 17 | 325 | 12.9 | 25.7 | 0.00 | 0.00 | 0.00 | 30 | 1017.4 |
| 20260501194554 | 16 | 294 | 9.7 | 19.3 | 0.00 | 0.00 | 0.00 | 31 | 1017.5 |
| 20260501193054 | 16 | 262 | 14.5 | 24.1 | 0.00 | 0.00 | 0.00 | 30 | 1017.7 |
| 20260501191603 | 16 | 164 | 6.4 | 25.7 | 0.00 | 0.00 | 0.00 | 33 | 1017.6 |
| 20260501190108 | 15 | 315 | 11.3 | 20.9 | 0.00 | 0.00 | 0.00 | 34 | 1017.7 |
| 20260501184557 | 15 | 210 | 4.8 | 16.1 | 0.00 | 0.00 | 0.00 | 35 | 1018.1 |
| 20260501183104 | 14 | 271 | 12.9 | 27.4 | 0.00 | 0.00 | 0.00 | 38 | 1018.2 |
| 20260501181607 | 14 | 250 | 8.0 | 27.4 | 0.00 | 0.00 | 0.00 | 39 | 1018.4 |